TimeEST,TemperatureF,Dew PointF,Humidity,Sea Level PressureIn,VisibilityMPH,Wind Direction,Wind SpeedMPH,Gust SpeedMPH,PrecipitationIn,Events,Conditions,WindDirDegrees,DateUTC
12:53 AM,42.1,32.0,67,29.65,10.0,WSW,5.8,-,N/A,,Overcast,250,2013-02-28 05:53:00
1:53 AM,43.0,30.0,60,29.66,10.0,West,10.4,-,N/A,,Overcast,270,2013-02-28 06:53:00
2:53 AM,41.0,27.0,57,29.66,10.0,West,13.8,19.6,N/A,,Overcast,280,2013-02-28 07:53:00
3:53 AM,39.0,25.0,57,29.65,10.0,West,5.8,16.1,N/A,,Overcast,280,2013-02-28 08:53:00
4:53 AM,34.0,25.0,70,29.67,10.0,WSW,6.9,-,N/A,,Clear,250,2013-02-28 09:53:00
5:53 AM,34.0,24.1,67,29.67,10.0,WSW,4.6,-,N/A,,Scattered Clouds,240,2013-02-28 10:53:00
7:53 AM,39.0,25.0,57,29.68,10.0,WSW,5.8,-,N/A,,Overcast,240,2013-02-28 12:53:00
8:53 AM,39.9,26.1,58,29.68,10.0,WSW,11.5,-,N/A,,Overcast,240,2013-02-28 13:53:00
9:53 AM,41.0,26.1,55,29.67,10.0,SW,11.5,-,N/A,,Mostly Cloudy,230,2013-02-28 14:53:00
10:53 AM,42.1,26.1,53,29.67,10.0,West,13.8,25.3,N/A,,Overcast,260,2013-02-28 15:53:00
11:53 AM,41.0,27.0,57,29.67,10.0,SW,9.2,-,N/A,,Overcast,230,2013-02-28 16:53:00
12:53 PM,42.1,25.0,51,29.67,10.0,West,13.8,-,N/A,,Overcast,260,2013-02-28 17:53:00
1:53 PM,42.1,25.0,51,29.65,10.0,WSW,12.7,-,N/A,,Overcast,250,2013-02-28 18:53:00
2:53 PM,43.0,25.0,49,29.65,10.0,West,17.3,24.2,N/A,,Overcast,270,2013-02-28 19:53:00
3:53 PM,41.0,27.0,57,29.66,10.0,West,18.4,25.3,N/A,,Overcast,260,2013-02-28 20:53:00
4:53 PM,42.1,28.0,58,29.67,10.0,West,12.7,-,N/A,,Overcast,270,2013-02-28 21:53:00
5:53 PM,39.9,26.1,58,29.69,10.0,West,10.4,-,N/A,,Overcast,260,2013-02-28 22:53:00
6:53 PM,39.9,25.0,55,29.71,10.0,West,11.5,-,N/A,,Overcast,280,2013-02-28 23:53:00
7:53 PM,39.9,26.1,58,29.72,10.0,West,11.5,-,N/A,,Overcast,280,2013-03-01 00:53:00
8:53 PM,39.9,27.0,60,29.73,10.0,WNW,10.4,-,N/A,,Overcast,290,2013-03-01 01:53:00
9:53 PM,39.9,28.0,63,29.74,10.0,WNW,15.0,-,N/A,,Overcast,290,2013-03-01 02:53:00
10:53 PM,39.9,28.0,63,29.74,10.0,WNW,9.2,-,N/A,,Overcast,300,2013-03-01 03:53:00
11:53 PM,39.9,27.0,60,29.74,10.0,WNW,17.3,25.3,N/A,,Overcast,290,2013-03-01 04:53:00